Location: River House Observatory
(37.8577°N, 76.3548°W)
Time: 20:48:21
(UTC-04:00)

NOSS 3-1 (C) - Visible Passes

Search period start: 22 October 2017 00:00
Search period end: 01 November 2017 00:00
Orbit: 817 x 1392 km, 63.4° (Epoch: 12 October)

Date Brightness Start Highest point End Pass type
(mag) Time Alt. Az. Time Alt. Az. Time Alt. Az.
22 Oct 5.0 04:01:08 29° ENE 04:01:08 29° ENE 04:04:42 10° NE visible
22 Oct 4.0 05:48:34 31° WNW 05:49:54 34° NW 05:55:43 10° NNE visible
23 Oct 6.1 03:17:48 13° ENE 03:17:48 13° ENE 03:18:33 10° ENE visible
23 Oct 3.7 05:05:14 50° NNW 05:05:14 50° NNW 05:10:37 10° NNE visible
23 Oct 5.2 06:54:09 10° NW 06:56:57 13° NNW 06:59:53 10° N visible
24 Oct 4.6 04:21:49 35° NNE 04:21:49 35° NNE 04:25:22 10° NNE visible
24 Oct 4.8 06:09:14 17° NW 06:10:55 19° NW 06:15:20 10° N visible
25 Oct 5.7 03:38:19 18° NE 03:38:19 18° NE 03:39:54 10° NE visible
25 Oct 4.5 05:25:45 27° NNW 05:25:45 27° NNW 05:30:30 10° NNE visible
26 Oct 4.8 04:42:12 27° N 04:42:12 27° N 04:45:30 10° NNE visible
26 Oct 5.4 06:30:45 10° NW 06:32:23 11° NNW 06:34:04 10° N visible
27 Oct 5.5 03:58:35 19° NNE 03:58:35 19° NNE 04:00:21 10° NNE visible
27 Oct 5.2 05:46:00 15° NNW 05:46:16 15° NNW 05:49:57 10° N visible
28 Oct 6.2 03:14:57 10° NE 03:14:57 10° NE 03:15:00 10° NE visible
28 Oct 5.2 05:02:22 19° NNW 05:02:22 19° NNW 05:05:15 10° NNE visible
29 Oct 5.6 04:18:41 17° N 04:18:41 17° N 04:20:20 10° NNE visible
30 Oct 6.1 03:34:58 11° NNE 03:34:58 11° NNE 03:35:16 10° NNE visible
30 Oct 5.5 05:22:22 12° NNW 05:22:22 12° NNW 05:24:26 10° N visible
31 Oct 5.7 04:38:38 13° N 04:38:38 13° N 04:39:56 10° N visible
